VMMC

Macau International Airport

Airport
ICAO code
VMMC
IATA Code
MFM
Summary
ICAO Region
APAC
ICAO Territory
Location

Taipa,

Serving
Macau
Elevation
20 ft
Coordinates
22° 8' 58" N , 113° 35' 29" E
KCC
Metar
Observation
VMMC 070200Z 36004KT 8000 FEW012 SCT022 20/18 Q1017 NOSIG
Station
Taipa
Date/Time
2023-02-07 02:00:00
Wind direction
360°
Wind speed
04 kts
Lowest cloud amount
few clouds
Temperature
20°C
Dew point
18°C
Humidity
88%
QNH
1017 hPa
Weather condition
n/a

Description

Macau International Airport situated at the eastern end of Taipa island and neighbouring waters, is the only airport in Macau. Since then the airport has been a common transfer point for people traveling between mainland China and Taiwan, as well as a passenger hub for destinations in mainland China and Southeast Asia.

Climatology

Humid “subtropical” climate (Köppen climate classification Cwa) - characterized by hot, humid summers and cool winters. Winter months are drier than the summer months. Winter rainfall (and sometimes snowfall) is associated with large storms that the westerlies steer from west to east. Most summer rainfall occurs during thunderstorms and the area is subject to frequent tropical typhoons.

SKYbrary Partners:

Safety knowledge contributed by: